Weather History for West Yellowstone, MT

Change the Weather History Date:

Tuesday, January 8, 2013

  Actual Average Record
Temperature  
Mean Temperature 20 °F -  
Max Temperature 24 °F 20 °F 26 °F (2011)
Min Temperature 15 °F 0 °F 1 °F (2012)
Degree Days  
Heating Degree Days 46    
Moisture  
Dew Point -    
Average Humidity    
Maximum Humidity    
Minimum Humidity    
Precipitation  
Precipitation 0.00 in - - ()
Sea Level Pressure  
Sea Level Pressure 30.06 in    
Wind  
Wind Speed 15 mph (SW)    
Max Wind Speed 23 mph    
Max Gust Speed 32 mph    
Visibility 5 miles    
Events Rain , Snow    
Averages and records for this station are not official NWS values.
T = Trace of Precipitation, MM = Missing Value Source: NWS Daily Summary

Daily Weather History Graph

Daily Weather History Graph

Search for Another Location

Airport:

Trip Planner

Search our weather history database for the weather conditions in past years. The results will help you decide how hot, cold, wet, or windy it might be!

Date:

Astronomy

Jan. 08, 2013 Rise Set
Actual Time 8:00 AM MST 5:02 PM MST
Civil Twilight 7:27 AM MST 5:35 PM MST
Nautical Twilight 6:51 AM MST 6:11 PM MST
Astronomical Twilight 6:16 AM MST 6:46 PM MST
Moon 4:37 AM MST (1/8) 2:08 PM MST (1/8)
Length of Visible Light 10h 07m
Length of Day
9h 01m
Waning Crescent, 13% of the Moon is Illuminated
Jan 8
Waning Crescent
Jan 11
New
Jan 18
First Quarter
Jan 26
Full
Feb 3
Last Quarter

Hourly Weather History & Observations

Time (MST) Temp. Windchill Dew Point Humidity Pressure Visibility Wind Dir Wind Speed Gust Speed Precip Events Conditions
12:05 AM 15.8 °F 1.4 °F - N/A% 29.94 in 4.0 mi WSW 13.8 mph 27.6 mph N/A Snow Light Snow
12:25 AM 15.8 °F -1.1 °F - N/A% 29.94 in 3.0 mi SW 19.6 mph 27.6 mph N/A Snow Light Snow
12:45 AM 15.8 °F -0.2 °F - N/A% 29.93 in 3.0 mi SW 17.3 mph 24.2 mph N/A Snow Light Snow
1:05 AM 17.6 °F 0.1 °F - N/A% 29.93 in 2.5 mi SW 23.0 mph 29.9 mph N/A Snow Light Snow
1:25 AM 17.6 °F 3.2 °F - N/A% 29.94 in 5.0 mi SW 15.0 mph 24.2 mph N/A Snow Light Snow
1:45 AM 17.6 °F 4.3 °F - N/A% 29.95 in 5.0 mi SW 12.7 mph 25.3 mph N/A Snow Light Snow
2:05 AM 17.6 °F 8.2 °F - N/A% 29.96 in 4.0 mi West 6.9 mph 20.7 mph N/A Snow Light Snow
2:25 AM 17.6 °F 5.7 °F - N/A% 29.97 in 5.0 mi WSW 10.4 mph - N/A Snow Light Snow
2:45 AM 17.6 °F 5.0 °F - N/A% 29.97 in 3.0 mi WSW 11.5 mph 24.2 mph N/A Snow Light Snow
3:05 AM 17.6 °F 4.3 °F - N/A% 29.97 in 3.0 mi WSW 12.7 mph 27.6 mph N/A Snow Light Snow
3:25 AM 17.6 °F 4.3 °F - N/A% 29.97 in 4.0 mi WSW 12.7 mph 23.0 mph N/A Snow Light Snow
3:45 AM 17.6 °F 3.2 °F - N/A% 29.97 in 5.0 mi SW 15.0 mph 25.3 mph N/A Snow Light Snow
4:05 AM 17.6 °F 3.2 °F - N/A% 29.97 in 8.0 mi SW 15.0 mph 24.2 mph N/A   Overcast
4:25 AM 17.6 °F 2.2 °F - N/A% 29.97 in 8.0 mi SW 17.3 mph 26.5 mph N/A   Overcast
4:45 AM 17.6 °F 1.7 °F - N/A% 29.98 in 5.0 mi SW 18.4 mph 23.0 mph N/A   Haze
5:05 AM 17.6 °F 2.2 °F - N/A% 29.97 in 8.0 mi SW 17.3 mph 24.2 mph N/A Snow Light Snow
5:25 AM 17.6 °F 1.3 °F - N/A% 29.97 in 7.0 mi SW 19.6 mph 31.1 mph N/A   Overcast
5:45 AM 19.4 °F 3.2 °F - N/A% 29.97 in 7.0 mi SW 20.7 mph 28.8 mph N/A   Overcast
6:05 AM 19.4 °F 2.8 °F - N/A% 29.97 in 7.0 mi SW 21.9 mph 31.1 mph N/A   Overcast
6:25 AM 17.6 °F 0.9 °F - N/A% 29.97 in 6.0 mi SW 20.7 mph 31.1 mph N/A   Haze
6:45 AM 17.6 °F 0.1 °F - N/A% 29.98 in 4.0 mi SSW 23.0 mph 32.2 mph N/A   Haze
7:05 AM 17.6 °F 3.7 °F - N/A% 30.00 in 5.0 mi SSW 13.8 mph 28.8 mph N/A   Haze
7:25 AM 17.6 °F 5.0 °F - N/A% 30.01 in 10.0 mi SSW 11.5 mph - N/A   Overcast
7:45 AM 17.6 °F 7.3 °F - N/A% 30.02 in 10.0 mi South 8.1 mph - N/A   Overcast
8:05 AM 17.6 °F 4.3 °F - N/A% 30.03 in 10.0 mi SSW 12.7 mph - N/A   Overcast
8:25 AM 17.6 °F 3.2 °F - N/A% 30.03 in 10.0 mi SSW 15.0 mph 21.9 mph N/A   Mostly Cloudy
8:45 AM 19.4 °F 5.0 °F - N/A% 30.05 in 7.0 mi SSW 16.1 mph 21.9 mph N/A   Mostly Cloudy
9:05 AM 19.4 °F 7.9 °F - N/A% 30.05 in 3.0 mi SW 10.4 mph 17.3 mph N/A Snow Light Snow
9:25 AM 19.4 °F 5.0 °F - N/A% 30.06 in 1.5 mi SW 16.1 mph 21.9 mph N/A Snow Light Snow
9:45 AM 19.4 °F 3.2 °F - N/A% 30.06 in 1.8 mi SW 20.7 mph 29.9 mph N/A Snow Light Snow
10:05 AM 19.4 °F 5.5 °F - N/A% 30.08 in 4.0 mi SW 15.0 mph 24.2 mph N/A Snow Light Snow
10:45 AM 21.2 °F 7.3 °F - N/A% 30.09 in 9.0 mi SW 16.1 mph 23.0 mph N/A   Overcast
11:05 AM 21.2 °F 8.9 °F - N/A% 30.08 in 10.0 mi SW 12.7 mph 26.5 mph N/A   Overcast
11:25 AM 21.2 °F 6.4 °F - N/A% 30.09 in 10.0 mi SW 18.4 mph 25.3 mph N/A   Overcast
11:45 AM 21.2 °F 8.3 °F - N/A% 30.09 in 10.0 mi SW 13.8 mph 19.6 mph N/A   Overcast
12:05 PM 21.2 °F 8.3 °F - N/A% 30.09 in 10.0 mi WSW 13.8 mph 23.0 mph N/A   Overcast
12:45 PM 23.0 °F 9.2 °F - N/A% 30.07 in 1.8 mi SW 17.3 mph 23.0 mph N/A Rain Light Freezing Rain
1:05 PM 23.0 °F 9.6 °F - N/A% 30.08 in 2.0 mi SSW 16.1 mph 26.5 mph N/A Rain Light Freezing Rain
1:25 PM 23.0 °F 8.0 °F - N/A% 30.08 in 6.0 mi SW 20.7 mph 28.8 mph N/A   Haze
1:45 PM 23.0 °F 9.2 °F - N/A% 30.09 in 8.0 mi SSW 17.3 mph 25.3 mph N/A   Mostly Cloudy
2:05 PM 23.0 °F 10.6 °F - N/A% 30.08 in 8.0 mi SW 13.8 mph 26.5 mph N/A   Overcast
2:25 PM 23.0 °F 10.6 °F - N/A% 30.08 in 5.0 mi SW 13.8 mph 26.5 mph N/A   Haze
2:45 PM 23.0 °F 9.6 °F - N/A% 30.09 in 6.0 mi SW 16.1 mph 27.6 mph N/A   Haze
3:05 PM 23.0 °F 9.2 °F - N/A% 30.09 in 4.0 mi SW 17.3 mph 28.8 mph N/A Snow Light Snow
3:25 PM 23.0 °F 9.2 °F - N/A% 30.11 in 4.0 mi SSW 17.3 mph 25.3 mph N/A Snow Light Snow
3:45 PM 21.2 °F 8.9 °F - N/A% 30.12 in 3.0 mi SW 12.7 mph 21.9 mph N/A   Overcast
4:05 PM 21.2 °F 7.8 °F - N/A% 30.12 in 2.5 mi SW 15.0 mph 23.0 mph N/A   Overcast
4:25 PM 21.2 °F 6.4 °F - N/A% 30.12 in 2.5 mi SW 18.4 mph 28.8 mph N/A Snow Light Snow
4:45 PM 21.2 °F 6.0 °F - N/A% 30.13 in 2.5 mi SSW 19.6 mph 28.8 mph N/A Snow Light Snow
5:05 PM 21.2 °F 7.3 °F - N/A% 30.14 in 2.5 mi SW 16.1 mph 21.9 mph N/A Snow Light Snow
5:25 PM 21.2 °F 8.3 °F - N/A% 30.14 in 8.0 mi SW 13.8 mph 20.7 mph N/A   Overcast
5:45 PM 21.2 °F 7.8 °F - N/A% 30.15 in 5.0 mi SW 15.0 mph 25.3 mph N/A   Haze
6:05 PM 19.4 °F 6.6 °F - N/A% 30.14 in 2.5 mi SW 12.7 mph 27.6 mph N/A   Overcast
6:45 PM 21.2 °F 10.9 °F - N/A% 30.15 in 4.0 mi NW 9.2 mph - N/A   Haze
7:05 PM 21.2 °F 12.6 °F - N/A% 30.15 in 5.0 mi NW 6.9 mph - N/A   Haze
7:25 PM 23.0 °F 18.4 °F - N/A% 30.15 in 8.0 mi NW 3.5 mph - N/A   Overcast
7:45 PM 23.0 °F 12.4 °F - N/A% 30.15 in 10.0 mi West 10.4 mph 23.0 mph N/A   Overcast
8:05 PM 23.0 °F 13.9 °F - N/A% 30.16 in 8.0 mi WSW 8.1 mph 18.4 mph N/A   Overcast
8:25 PM 21.2 °F 10.9 °F - N/A% 30.17 in 5.0 mi West 9.2 mph 18.4 mph N/A Snow Light Snow
8:45 PM 23.0 °F 11.1 °F - N/A% 30.18 in 4.0 mi West 12.7 mph 20.7 mph N/A   Haze
9:05 PM 23.0 °F 9.6 °F - N/A% 30.19 in 3.0 mi SW 16.1 mph 21.9 mph N/A   Overcast
9:25 PM 23.0 °F 11.7 °F - N/A% 30.19 in 3.0 mi WSW 11.5 mph 23.0 mph N/A   Overcast
9:45 PM 23.0 °F 11.1 °F - N/A% 30.19 in 2.5 mi SW 12.7 mph 19.6 mph N/A   Overcast
11:05 PM 23.0 °F 12.4 °F - N/A% 30.21 in 2.5 mi WSW 10.4 mph 18.4 mph N/A   Overcast
11:25 PM 24.8 °F 12.9 °F - N/A% 30.21 in 2.5 mi SW 13.8 mph 23.0 mph N/A   Overcast
11:45 PM 24.8 °F 13.4 °F - N/A% 30.21 in 2.5 mi SW 12.7 mph 20.7 mph N/A   Overcast